Theta_e
302 303 303 304 304 303 303 304 304 304 304 306 306 305 303 302 301 300 299 299 297 296 295 294 292 291 289 288 288 288 288 289 290 290 291 291 293 294 296 296 299 301 303 304
304 302 302 302 303 303 303 304 304 304 304 306 303 303 302 301 299 298 298 297 295 295 293 293 291 290 289 287 288 288 288 288 289 289 290 290 291 294 295 295 296 298 300 301
304 303 304 305 304 304 304 305 306 305 305 303 302 301 301 299 298 297 297 295 294 294 292 291 291 290 289 288 288 288 287 287 287 288 288 289 290 291 293 293 294 295 295 297
305 304 305 306 305 304 304 304 304 303 302 301 301 300 300 298 297 296 295 294 294 292 291 291 290 289 288 288 288 287 287 286 286 287 287 288 289 289 290 292 292 292 293 294
306 305 305 305 304 304 304 304 304 302 301 301 301 301 300 298 296 295 294 293 292 291 290 290 290 289 288 289 288 287 286 286 286 287 287 287 288 288 289 290 291 291 292 292
305 305 304 307 304 303 303 305 303 302 301 300 300 302 302 297 295 295 293 292 291 290 290 290 289 288 288 289 288 287 286 286 286 286 287 287 287 288 289 289 290 290 290 290
306 306 306 305 303 303 305 307 302 301 301 300 300 299 297 295 293 293 292 291 290 289 289 289 289 288 288 288 287 286 285 286 286 286 286 286 287 287 287 287 287 288 287 288
306 307 306 304 303 304 305 301 300 299 299 297 298 297 295 293 294 292 291 290 289 288 288 288 288 287 287 287 285 285 285 285 285 285 285 285 285 286 286 285 285 286 286 286
306 307 304 303 305 303 301 301 299 298 297 297 297 295 293 293 293 291 290 289 288 288 288 287 287 286 286 285 284 284 284 283 284 284 284 283 284 284 284 284 284 284 285 285
305 304 304 303 302 301 300 299 298 297 297 296 294 292 292 292 291 290 289 288 287 286 286 286 285 285 285 284 283 283 283 283 283 283 283 283 283 284 284 283 282 282 282 282
304 304 303 302 301 299 298 297 297 296 294 293 291 291 290 290 289 288 287 286 285 285 284 284 284 283 283 283 282 282 282 283 283 282 283 283 283 283 283 283 282 281 281 281
305 306 305 304 300 298 297 296 296 294 293 291 289 289 288 287 286 285 283 283 282 282 282 282 281 282 281 281 281 281 281 282 282 282 282 282 282 282 282 282 282 281 281 280
302 303 303 301 300 298 297 295 292 291 290 289 288 286 286 285 283 281 281 280 280 279 280 280 279 280 280 280 280 280 280 281 281 281 281 281 281 282 282 282 282 281 280 280
301 301 300 299 298 295 294 292 288 288 287 286 285 284 284 283 281 280 279 278 277 277 279 278 278 278 279 279 279 279 281 281 281 280 281 281 281 281 281 281 281 281 280 279
300 300 300 297 294 293 291 290 289 288 287 285 284 282 282 281 281 280 278 277 276 278 277 277 278 279 278 279 279 279 281 281 280 280 281 281 281 280 280 280 280 280 279 279
298 297 296 295 293 291 290 289 288 287 285 284 283 281 280 280 280 279 277 276 277 277 277 278 278 278 278 279 278 280 280 280 280 280 281 280 280 280 280 280 279 279 279 278
297 296 294 292 291 289 288 286 285 284 283 282 280 278 278 278 279 277 276 276 277 278 279 277 277 277 278 278 278 279 280 280 280 280 280 280 279 279 279 279 279 278 278 277
295 294 293 292 290 288 286 284 283 282 281 279 277 276 276 276 276 276 276 276 277 277 277 276 276 276 278 278 277 278 279 279 279 280 279 279 279 279 279 278 278 278 277 277
290 288 287 287 286 286 285 284 282 280 278 277 277 276 276 276 275 275 276 277 278 277 276 276 276 277 277 277 276 278 278 278 279 279 279 279 279 279 279 278 277 277 277 276
287 286 285 284 283 284 282 280 279 278 277 277 276 277 276 276 276 275 277 278 277 275 275 276 276 276 275 276 276 277 277 277 278 278 278 278 278 278 278 278 277 277 276 276
287 285 283 282 279 278 277 277 277 278 276 275 275 275 274 276 276 276 277 277 276 274 274 276 275 274 274 274 276 276 276 276 276 277 277 277 277 278 277 277 277 276 276 275
284 282 280 279 279 278 277 277 276 276 276 275 275 275 275 278 277 278 275 275 275 274 274 274 273 272 273 274 275 275 275 275 275 275 275 275 275 276 276 276 276 275 275 274
282 281 280 279 279 278 277 276 275 275 276 275 275 274 276 276 277 276 276 275 274 273 274 273 271 272 272 274 274 274 274 274 273 274 274 274 274 274 274 274 274 274 273 273
282 281 280 279 277 278 280 277 277 276 275 275 274 273 275 276 276 276 275 274 273 272 274 272 271 271 273 273 273 273 273 273 272 272 272 272 273 272 273 272 272 273 272 271
281 281 279 279 280 280 278 278 277 277 277 278 276 276 275 275 275 274 274 274 273 273 273 272 271 271 272 272 272 272 272 271 271 271 271 271 271 271 271 271 271 271 270 270
281 282 281 280 281 280 279 279 279 278 278 278 278 276 275 275 274 274 274 274 273 273 272 272 272 271 271 271 271 271 271 271 270 270 270 270 270 270 270 270 270 269 269 268
281 281 280 280 279 279 279 278 279 279 277 277 277 276 275 274 274 274 273 273 273 273 272 272 272 271 270 271 271 271 270 270 270 269 270 269 269 269 269 268 268 268 268 267
Wind_Speed
11 4 4 8 11 13 15 15 14 16 17 11 10 10 8 12 12 15 16 17 16 16 19 23 24 25 25 25 24 24 23 24 25 26 25 27 28 28 25 20 15 14 12 9
8 10 10 11 14 16 15 15 14 14 14 6 10 12 13 13 12 15 16 16 16 16 20 22 24 25 26 26 26 24 24 24 22 22 22 20 22 19 15 15 14 12 11 11
9 8 10 12 16 12 10 2 4 10 10 12 11 12 11 10 10 13 14 15 15 15 19 22 23 24 25 26 25 25 23 24 25 25 22 21 19 18 17 15 15 15 15 13
4 5 12 4 5 3 2 8 10 6 7 7 9 8 5 5 11 12 14 14 14 18 20 21 22 23 23 23 23 25 25 26 25 25 27 26 24 23 22 21 22 20 18 18
5 11 5 8 7 5 5 5 4 5 5 7 8 10 3 6 10 11 12 15 17 18 19 19 20 23 24 23 22 23 25 25 26 26 26 25 24 22 20 20 19 20 20 20
7 9 8 9 9 4 2 9 8 4 5 5 9 7 4 11 11 12 14 15 17 19 19 18 19 20 21 22 23 25 26 27 26 25 23 23 24 24 23 23 21 21 20 19
10 6 1 9 8 5 7 3 6 4 3 2 4 5 10 9 10 12 15 16 17 18 18 18 19 20 20 21 22 24 24 23 23 22 23 22 22 20 21 20 19 18 19 19
8 6 8 10 8 6 4 4 3 3 2 3 6 7 7 8 10 12 14 16 16 18 18 19 19 20 21 21 24 24 23 22 21 20 19 19 20 19 19 19 19 20 21 22
2 0 7 5 3 3 1 4 4 3 3 4 6 6 8 9 9 11 13 15 16 17 18 18 19 21 22 22 23 24 24 24 21 21 20 20 20 20 20 20 20 20 20 19
2 6 8 5 4 4 3 3 3 2 2 4 5 6 8 9 10 13 14 15 17 18 18 20 21 21 21 22 24 25 24 23 21 21 22 20 20 18 18 19 20 20 19 21
3 5 6 5 6 5 4 4 3 1 3 4 5 6 8 9 11 14 15 16 17 17 18 19 21 22 22 22 23 24 23 21 19 19 18 19 18 18 16 15 16 17 17 19
1 8 5 7 7 7 7 6 2 2 2 3 6 7 9 10 11 13 15 16 17 17 18 20 21 21 20 20 21 21 22 21 21 20 19 19 20 19 16 15 16 15 15 18
2 7 7 9 9 8 6 3 2 1 3 4 6 8 9 10 11 12 12 13 15 17 18 19 20 20 19 20 20 20 19 19 18 18 19 19 19 19 20 20 18 17 18 20
10 10 9 10 7 6 6 5 3 3 3 4 6 8 9 8 9 9 11 13 15 16 16 16 17 18 19 21 21 21 18 17 17 19 18 17 18 19 19 20 21 21 19 21
8 2 6 10 9 7 5 4 2 1 4 4 6 8 8 8 8 7 9 12 14 13 15 16 18 19 22 21 22 22 19 18 19 20 18 19 19 18 18 19 19 20 22 23
7 7 8 7 6 5 4 3 1 2 4 5 6 8 10 9 8 8 10 11 13 14 14 16 17 19 21 19 20 20 17 16 17 18 17 17 17 18 18 18 19 20 20 21
8 7 6 6 5 4 3 4 3 3 4 5 6 9 10 10 9 11 12 12 12 12 10 15 17 20 20 18 20 19 16 17 16 14 15 15 15 15 15 15 16 17 17 18
7 7 3 5 5 4 4 4 3 3 4 5 4 6 7 9 11 12 13 12 12 13 13 18 18 21 18 18 21 18 17 17 16 14 13 14 14 13 13 14 15 16 17 19
11 11 9 8 6 5 4 3 3 3 3 3 4 6 7 8 11 13 13 14 11 15 18 18 20 18 19 19 20 17 16 17 16 14 13 13 12 12 12 14 15 15 17 18
12 11 11 10 8 5 6 5 2 3 3 2 4 5 8 8 9 12 13 12 12 14 17 17 18 17 19 19 20 16 16 16 15 14 14 14 13 13 13 13 14 15 16 16
11 10 9 9 9 8 7 5 3 3 2 3 4 5 8 9 8 10 11 12 14 17 17 16 17 19 19 19 18 16 16 16 16 15 15 15 14 14 13 13 13 14 14 15
10 10 10 9 7 7 5 4 3 2 1 2 4 5 9 8 7 8 2 9 14 16 15 15 17 19 18 19 15 15 16 16 15 15 15 15 15 15 14 14 13 13 13 14
10 10 9 7 5 5 4 3 3 2 1 2 4 7 8 9 8 9 10 12 13 15 14 14 17 18 18 15 15 15 15 15 16 15 15 14 14 14 13 14 13 13 13 13
11 10 9 7 6 4 3 4 1 2 0 2 1 6 7 9 9 9 10 11 11 16 13 12 16 16 16 14 14 15 14 15 15 15 14 14 14 13 13 13 13 13 12 12
11 9 8 6 5 4 3 2 4 4 4 1 1 3 5 7 7 10 9 10 11 12 12 13 14 16 13 13 14 14 14 14 14 14 14 13 13 12 12 12 12 12 12 12
11 8 7 2 3 2 2 0 2 2 3 3 2 5 6 7 6 8 9 9 10 11 11 12 13 14 13 13 13 13 13 13 14 13 13 12 12 11 11 11 11 11 11 10
8 7 6 5 3 2 1 1 2 1 1 3 4 5 7 7 7 8 9 10 10 10 11 11 11 12 13 12 12 13 12 13 13 13 13 12 11 11 11 11 10 10 10 11
Wind_Direction
258 238 240 208 212 219 234 247 260 278 296 355 355 354 357 324 335 327 332 334 335 339 339 340 343 342 344 344 347 346 350 350 357 350 355 353 350 341 350 354 351 353 345 354
253 246 243 245 239 245 251 260 272 284 294 10 349 335 343 333 338 328 332 335 339 340 342 340 341 342 342 343 345 348 351 349 351 354 355 349 340 340 344 330 333 353 349 358
254 193 215 243 234 228 237 266 292 277 322 344 332 337 334 341 335 329 333 339 340 341 341 340 339 342 343 342 343 345 351 350 350 350 351 349 344 342 340 336 343 3 346 353
272 175 235 127 52 96 224 250 246 258 291 311 317 326 349 358 328 337 335 338 338 337 338 338 338 343 340 342 344 346 349 349 349 349 347 347 346 346 346 348 356 355 341 349
228 226 155 173 191 217 240 263 183 251 268 306 315 301 153 346 343 331 329 331 333 335 333 335 342 343 341 343 344 348 349 347 345 344 345 346 347 345 345 344 350 350 345 345
216 255 251 81 117 141 141 259 152 214 267 295 314 297 92 351 334 325 329 331 333 332 332 337 343 346 340 342 347 349 345 340 343 344 344 345 345 344 347 349 351 348 346 349
237 242 289 144 144 168 236 92 162 247 245 315 307 310 309 319 315 326 328 330 332 334 332 338 341 344 340 343 351 344 340 339 342 342 343 344 343 345 348 349 346 348 349 350
242 227 245 151 147 232 88 137 181 196 234 275 281 295 309 312 325 331 333 332 336 333 334 337 341 342 340 347 342 341 339 340 341 342 344 344 345 347 351 351 349 351 352 354
189 142 125 116 83 94 120 155 179 209 240 277 295 319 318 325 325 330 330 335 337 334 332 338 340 342 338 342 339 339 339 340 339 341 345 346 349 351 351 354 353 352 351 348
190 190 176 145 128 159 146 167 203 235 311 304 322 320 320 330 330 335 341 341 337 334 336 336 339 338 338 340 341 339 339 333 337 342 341 347 351 350 350 351 351 346 341 341
215 206 128 203 165 177 163 182 199 163 346 346 331 329 337 329 338 341 340 339 340 338 338 336 337 338 340 342 341 338 334 333 340 341 342 343 346 346 346 348 341 334 337 335
272 172 177 155 145 162 169 194 170 300 297 344 342 336 338 336 346 350 342 342 342 340 338 337 338 337 339 338 338 334 332 333 336 336 342 343 342 342 345 344 343 344 344 343
152 150 109 144 161 172 171 120 111 51 24 347 354 344 345 344 357 344 343 343 339 333 331 332 335 336 336 337 335 332 329 329 333 339 342 342 341 341 338 342 345 348 349 346
111 127 132 155 148 132 139 130 138 78 43 15 359 352 353 355 355 348 346 340 333 332 337 338 337 335 336 336 335 332 327 332 341 338 335 339 339 341 340 340 343 346 352 356
147 32 124 112 130 134 141 149 137 38 8 6 12 358 356 351 340 352 348 340 336 338 347 341 339 338 337 336 336 333 334 339 340 336 337 340 341 342 342 343 345 344 351 357
130 121 126 137 133 134 133 112 110 31 5 4 9 360 351 346 339 353 345 347 348 343 334 342 341 338 335 336 337 331 334 337 339 336 337 341 342 343 346 347 350 353 356 355
151 152 144 140 150 139 101 79 58 32 11 10 10 358 353 351 344 354 348 346 343 334 337 346 340 338 336 339 341 333 335 338 338 338 342 342 343 345 348 348 352 354 355 358
92 97 108 126 134 136 117 91 72 36 29 18 11 360 358 355 349 344 342 340 337 342 357 344 343 337 339 343 344 335 339 340 340 340 344 343 343 347 351 352 355 358 359 2
97 97 99 102 97 102 108 101 74 54 46 18 5 359 348 347 345 342 334 325 341 350 347 342 343 342 344 347 344 339 343 340 341 344 345 341 348 350 356 357 358 3 5 6
117 112 107 95 82 83 90 73 61 75 29 17 345 353 350 348 343 337 333 337 15 357 340 343 346 349 344 347 342 347 345 345 345 345 348 346 353 354 358 1 4 7 11 12
116 114 111 107 96 82 81 83 75 74 58 21 4 357 336 320 337 314 337 347 355 353 345 347 352 350 346 346 345 351 352 351 350 350 350 353 355 357 2 5 7 11 14 15
119 114 114 114 106 95 89 83 87 80 35 9 353 338 322 324 342 342 111 11 346 354 345 352 349 346 345 341 351 353 354 356 355 354 357 357 358 359 2 5 9 11 16 19
130 131 127 124 121 114 115 88 71 64 85 23 6 355 340 332 340 349 341 352 346 343 341 351 347 348 344 353 355 356 358 359 358 359 359 358 359 0 3 5 7 13 17 18
134 135 134 131 130 143 161 119 108 102 29 247 100 6 346 348 340 6 343 341 348 345 348 2 353 349 349 355 358 358 359 1 2 360 1 3 2 3 6 8 6 12 16 19
138 137 140 151 173 149 150 149 196 188 226 228 360 4 349 347 339 336 341 341 341 347 346 354 357 353 358 358 357 357 358 2 359 359 2 6 7 8 8 10 13 13 17 22
152 161 147 100 68 122 120 326 66 33 336 354 24 6 347 344 341 338 344 345 343 346 348 350 354 356 355 356 357 359 358 2 4 3 5 8 9 12 12 12 15 17 18 20
140 147 144 142 146 148 91 6 319 50 22 350 347 4 347 345 344 344 344 346 346 349 349 352 357 359 358 357 358 360 2 3 5 6 7 8 11 12 12 13 14 16 18 22